Location: Kolin
(50.0330°N, 15.2000°E)
Time: 21:04:13
(UTC+02:00)

UWE-3 - Visible Passes

Search period start: 13 August 2022 00:00
Search period end: 23 August 2022 00:00
Orbit: 583 x 677 km, 97.7° (Epoch: 13 August)

Date Brightness Start Highest point End Pass type
(mag) Time Alt. Az. Time Alt. Az. Time Alt. Az.
13 Aug ? 02:51:39 10° ENE 02:52:29 10° E 02:53:18 10° E visible
13 Aug ? 04:24:58 10° NNE 04:29:38 78° ESE 04:34:09 10° S visible
14 Aug ? 03:10:18 10° NE 03:13:11 16° E 03:16:01 10° SE visible
14 Aug ? 04:45:25 10° N 04:50:01 69° WNW 04:54:30 10° SSW visible
15 Aug ? 03:30:03 10° NE 03:33:49 24° E 03:37:29 10° SSE visible
15 Aug ? 05:05:58 10° N 05:10:21 45° WNW 05:14:38 10° SW visible
16 Aug ? 03:50:07 10° NNE 03:54:22 37° E 03:58:31 10° SSE visible
17 Aug ? 04:10:21 10° NNE 04:14:53 57° E 04:19:16 10° S visible
18 Aug ? 02:56:35 10° ENE 02:58:14 12° E 02:59:53 10° ESE visible
18 Aug ? 04:30:42 10° NNE 04:35:19 88° ESE 04:39:46 10° SSW visible
19 Aug ? 03:15:47 10° NE 03:18:54 18° E 03:21:59 10° SE visible
19 Aug ? 04:51:09 10° N 04:55:40 60° WNW 05:00:02 10° SSW visible
20 Aug ? 03:35:38 10° NE 03:39:31 27° E 03:43:17 10° SSE visible
20 Aug ? 05:11:44 10° N 05:15:58 39° WNW 05:20:05 10° SW visible
21 Aug ? 03:55:44 10° NNE 04:00:03 41° E 04:04:13 10° SSE visible
22 Aug ? 04:16:00 10° NNE 04:20:31 65° ESE 04:24:45 11° S visible
